Flag Weather past 2 weeks in Enschede, Netherlands

Now
57 °F

Fog.


Feels Like: 56 °F
Forecast: 51 / 61 °F
Wind: 6 mph from South

Location: Deelen

Current Time: Oct 30, 2014 at 5:19:43 PM

Latest Report: Oct 30, 2014 at 4:55 PM


Visibility: 2 mi

Pressure: 30.15 "Hg

Humidity: 100%

Dew point: 57 °F

Location of EnschedeLocation

Historic Weather in Enschede — Graph

°F

Enschede temperature yesterday

Maximum temperature yesterday: 52 °F (at 1:25 PM)
Minimum temperature yesterday: 46 °F (at 3:55 AM)
Average temperature yesterday: 50 °F

Past Weeks' High & Low Weather Summary

 TemperatureHumidityPressure
High72 °F (Oct 18, 3:55 PM)100% (Oct 15, 8:55 PM)30.24 "Hg (Oct 15, 8:55 PM)
Low43 °F (Oct 23, 12:25 AM)63% (Oct 27, 1:25 PM)29.45 "Hg (Oct 21, 2:25 PM)
Average54 °F90%29.99 "Hg
* Reported Oct 15 4:25 PM — Oct 30 3:55 PM, Enschede, Weather by CustomWeather, © 2014

Note: Actual official high and low records may vary slightly from our data, if they occured in-between our weather recording intervals... More about our weather records

Advertising

Enschede weather history for previous 24 hours

 ConditionsComfort  
Time TempWeatherWind HumidityBarometerVisibility
3:55 PM
Oct 30
57 °FFog.7 mph94%30.15 "Hg2 mi
3:25 PM57 °FFog.6 mph94%30.15 "Hg2 mi
2:55 PM57 °FFog.7 mph94%30.18 "Hg2 mi
2:25 PM57 °FFog.6 mph94%30.18 "Hg2 mi
1:55 PM57 °FFog.8 mph94%30.18 "Hg2 mi
1:25 PM55 °FFog.7 mph100%30.18 "Hg2 mi
12:55 PM55 °FDrizzle. Low clouds.8 mph100%30.18 "Hg2 mi
12:25 PM55 °FDrizzle. Low clouds.7 mph100%30.18 "Hg2 mi
11:55 AM54 °FFog.7 mph100%30.18 "Hg2 mi
11:25 AM54 °FFog.6 mph100%30.18 "Hg3 mi
10:55 AM54 °FFog.6 mph100%30.18 "Hg3 mi
10:25 AM54 °FFog.6 mph100%30.18 "Hg3 mi
9:55 AM52 °FFog.6 mph100%30.18 "Hg2 mi
9:25 AM52 °FFog.6 mph100%30.18 "Hg2 mi
8:55 AM52 °FFog.6 mph100%30.18 "Hg1 mi
8:25 AM52 °FFog.6 mph100%30.18 "Hg2 mi
7:55 AM52 °FFog.6 mph100%30.15 "Hg2 mi
7:25 AM52 °FFog.6 mph100%30.15 "Hg2 mi
6:55 AM52 °FFog.6 mph100%30.15 "Hg2 mi
6:25 AM52 °FFog.5 mph100%30.15 "Hg2 mi
5:55 AM52 °FFog.3 mph100%30.15 "Hg2 mi
5:25 AM52 °FFog.3 mph100%30.15 "Hg2 mi
4:55 AM52 °FFog.3 mph100%30.15 "Hg3 mi
4:25 AM52 °FFog.5 mph100%30.12 "Hg3 mi
3:55 AM52 °FFog.3 mph100%30.15 "Hg3 mi
3:25 AM52 °FFog.3 mph100%30.15 "Hg3 mi
2:55 AM52 °FFog.6 mph100%30.12 "Hg3 mi
2:25 AM52 °FFog.5 mph100%30.15 "Hg3 mi
1:55 AM52 °FFog.3 mph100%30.15 "Hg2 mi
1:25 AM52 °FFog.5 mph100%30.12 "Hg1 mi
12:55 AM52 °FFog.5 mph100%30.12 "Hg1 mi
12:25 AM52 °FFog.6 mph100%30.12 "Hg1 mi
11:55 PM
Oct 29
52 °FFog.6 mph100%30.12 "Hg1 mi
11:25 PM52 °FFog.2 mph100%30.12 "Hg1 mi
10:55 PM52 °FFog.2 mph100%30.12 "Hg1 mi
10:25 PM52 °FFog.1 mph100%30.12 "Hg2 mi
9:55 PM52 °FFog.2 mph100%30.12 "Hg2 mi
9:25 PM52 °FFog.1 mph100%30.09 "Hg1 mi
8:55 PM52 °FFog.1 mph100%30.09 "Hg1 mi
8:25 PM52 °FFog.1 mph100%30.09 "Hg1 mi
7:55 PM52 °FFog.2 mph100%30.09 "Hg1 mi
7:25 PM52 °FFog.2 mph100%30.09 "Hg1 mi
6:55 PM52 °FFog.2 mph100%30.09 "Hg1 mi
6:25 PM52 °FFog.1 mph100%30.07 "Hg1 mi
5:55 PM52 °FFog.2 mph100%30.07 "Hg1 mi
5:25 PM52 °FFog.3 mph100%30.04 "Hg1 mi
Weather by CustomWeather, © 2014

See weather overviewHow to use our weather pages